Location: *
(42.5628°N, 2.3633°E)
Time: 02:35:33
(UTC+00:00)

IRIDIUM 106 - Pass Details

Date: 30 March 2020
Orbit: 776 x 779 km, 86.4° (Epoch: 31 May)

Event Time Altitude Azimuth Distance (km) Brightness Sun altitude
Rises 19:49:07 0° 359° (N) 3,273 7.9 -17.6°
Reaches altitude 10° 19:51:30 10° 2° (N) 2,341 7.1 -18.0°
Maximum altitude 19:56:43 69° 86° (E) 836 4.2 -18.9°
Enters shadow 20:00:00 23° 165° (SSE) 1,609 5.6 -19.4°
